User: anonymous   Login
Location: Dover
(39.1580°N, 75.5250°W)
Time: 04:40:11
(UTC-04:00)
Language:

SeaSat 1 - Orbit

View from above orbital plane
View from above orbital plane
View from above satellite
View from above satellite

Ground track
Ground track

The orbit data is extracted from the following two-line orbital elements,

1 10967U 78064A   16180.86028226 -.00000026 +00000-0 +32854-4 0  9993
2 10967 108.0002 281.2486 0001277 230.4215 129.6817 14.43557392995371
Epoch (UTC): 28 June 2016 20:38:48
Eccentricity: 0.0001277
inclination: 108.0002°
perigee height: 746 km
apogee height: 747 km
right ascension of ascending node: 281.2486°
argument of perigee: 230.4215°
revolutions per day: 14.43557392
mean anomaly at epoch: 129.6817°
orbit number at epoch: 99537

The dashed part of the orbit path shows where the satellite is in the earth's shadow,  

DLR